Weather in Rozhdestvenskoye

Russia / Oryol Oblast     52°21′04″N   37°09′28″E
temp.,
°C
wind,
m/s
gust,
m/s
humid.,
%
clouds,
%
prec.,
mm/h
press.,
hPa
HPBL,
m
17 april, sat
sat1700:00+7sse23780 0.0 101836
03:00+6ese118159 0.0 101810
06:00+6ssw3685100 0.2 1019207
09:00+6sw3493100 5.2 1018190
12:00+5wnw1189100 4.6 1018323
15:00+7ne0182100 4.6 1018401
18:00+8ese238391 0.4 1017325
21:00+6s24855 0.6 101871
18 april, sun
sun1800:00+4sw348990 0.0 101865
03:00+5sse228594 0.1 101821
06:00+4ssw23905 0.0 101932
09:00+7s3473100 0.1 1019575
12:00+10ssw2453100 0.2 10191613
15:00+11sse3352100 0.4 10191456
18:00+9sse3471100 0.6 1019659
21:00+7sse2377100 0.7 101949
19 april, mon
mon1900:00+7e3580100 0.1 1019128
03:00+6ese2385100 0.3 1019109
06:00+6ene4795100 7.2 1018241
09:00+8e51079100 7.6 1018717
12:00+10e477280 2.9 1018709
15:00+12ese4760100 3.6 10161426
18:00+11ene2366100 0.3 101663
21:00+9ene497983 0.4 1015197
20 april, tue
tue2000:00+7ene489348 0.0 1014240
03:00+7ene61196100 0.1 1013445
06:00+7ene61295100 0.1 1011624
09:00+8ene71294100 0.3 1009703
12:00+8ene81595100 1.2 1005724
15:00+8e111994100 5.7 1000927
18:00+11se111893100 5.8 9951149
21:00+9se514895 6.1 996445
21 april, wed
wed2100:00+9sse8158725 0.1 997725
03:00+8sse81489100 0.4 997791
06:00+3sw71396100 1.1 1002806
09:00+5sw71388100 1.2 10061185
12:00+7sw71474100 0.1 10101541
15:00+11sw81358100 0.1 10111817
18:00+10sw5965100 0.0 1013913
21:00+6ssw3883100 0.0 1015170